• In Belgium
  • List of Countries
  • For 7 days
  • Water Temperature
  • Satellite Maps
  • Weather Map
  • Weather Widgets
  • user-avatar
    Login

    Hourly Weather Sydney

    Today, 25 February, Sunday

    Time Temperature Precipitation Wind Pressure Humidity
    00:00 +28°C° 0 mm 5 mps 752 mmHg 63%
    01:00 +27°C° 0 mm 4 mps 752 mmHg 65%
    02:00 +27°C° 0.3 mm 4 mps 752 mmHg 69%
    03:00 +26°C° 0.3 mm 4 mps 752 mmHg 74%
    04:00 +25°C° 0 mm 3 mps 752 mmHg 78%
    05:00 +25°C° 0.3 mm 4 mps 752 mmHg 81%
    06:00 +25°C° 0.3 mm 5 mps 753 mmHg 83%
    07:00 +24°C° 0.3 mm 6 mps 753 mmHg 85%
    08:00 +24°C° 0.2 mm 6 mps 754 mmHg 85%
    09:00 +24°C° 0.2 mm 6 mps 754 mmHg 84%
    10:00 +22°C° 0 mm 8 mps 754 mmHg 84%
    11:00 +21°C° 0.2 mm 8 mps 754 mmHg 83%
    12:00 +21°C° 0.2 mm 7 mps 754 mmHg 83%
    13:00 +21°C° 0.2 mm 6 mps 754 mmHg 83%
    14:00 +21°C° 0.4 mm 6 mps 754 mmHg 84%
    15:00 +20°C° 0.4 mm 6 mps 755 mmHg 86%
    16:00 +17°C° 0 mm 7 mps 755 mmHg 85%
    17:00 +17°C° 1.1 mm 6 mps 756 mmHg 87%
    18:00 +17°C° 1.1 mm 6 mps 756 mmHg 89%
    19:00 +17°C° 1.1 mm 5 mps 756 mmHg 91%
    20:00 +17°C° 1.9 mm 6 mps 756 mmHg 92%
    21:00 +18°C° 1.9 mm 7 mps 756 mmHg 92%
    22:00 +20°C° 1.9 mm 7 mps 756 mmHg 93%
    23:00 +20°C° 2.2 mm 7 mps 756 mmHg 93%

    Tomorrow, 26 February, Monday

    Time Temperature Precipitation Wind Pressure Humidity
    00:00 +20°C° 2.2 mm 8 mps 756 mmHg 93%
    01:00 +20°C° 2.2 mm 8 mps 756 mmHg 92%
    02:00 +20°C° 1.7 mm 8 mps 756 mmHg 92%
    03:00 +18°C° 1.7 mm 8 mps 756 mmHg 92%
    04:00 +18°C° 1.7 mm 8 mps 756 mmHg 91%
    05:00 +18°C° 0.8 mm 8 mps 756 mmHg 91%
    06:00 +18°C° 0.8 mm 8 mps 757 mmHg 91%
    07:00 +18°C° 0.8 mm 9 mps 757 mmHg 90%
    08:00 +18°C° 0.8 mm 8 mps 757 mmHg 90%
    09:00 +17°C° 0.8 mm 8 mps 758 mmHg 90%
    10:00 +17°C° 0.8 mm 8 mps 758 mmHg 89%
    11:00 +18°C° 0.3 mm 8 mps 758 mmHg 87%
    12:00 +18°C° 0.3 mm 7 mps 758 mmHg 86%
    13:00 +18°C° 0.3 mm 7 mps 758 mmHg 84%
    14:00 +18°C° 0.4 mm 7 mps 759 mmHg 81%
    15:00 +20°C° 0.4 mm 7 mps 759 mmHg 79%
    16:00 +20°C° 0.4 mm 7 mps 759 mmHg 77%
    17:00 +20°C° 0.1 mm 7 mps 759 mmHg 76%
    18:00 +18°C° 0.1 mm 7 mps 760 mmHg 76%
    19:00 +19°C° 0.1 mm 6 mps 760 mmHg 76%
    20:00 +19°C° 0 mm 6 mps 761 mmHg 78%
    21:00 +17°C° 0 mm 6 mps 761 mmHg 80%
    22:00 +17°C° 0 mm 6 mps 761 mmHg 82%
    23:00 +16°C° 0 mm 6 mps 761 mmHg 83%

    Day after tomorrow, 27 February, Tuesday

    Time Temperature Precipitation Wind Pressure Humidity
    00:00 +16°C° 0 mm 5 mps 761 mmHg 84%
    01:00 +16°C° 0 mm 5 mps 761 mmHg 86%
    02:00 +16°C° 0 mm 5 mps 761 mmHg 86%
    03:00 +15°C° 0 mm 5 mps 761 mmHg 86%
    04:00 +15°C° 0 mm 5 mps 761 mmHg 87%
    05:00 +16°C° 0 mm 5 mps 761 mmHg 84%
    06:00 +16°C° 0 mm 5 mps 762 mmHg 81%
    07:00 +17°C° 0 mm 5 mps 762 mmHg 78%
    08:00 +20°C° 0 mm 5 mps 762 mmHg 71%
    09:00 +21°C° 0 mm 5 mps 762 mmHg 63%
    10:00 +23°C° 0 mm 4 mps 762 mmHg 56%
    11:00 +25°C° 0 mm 4 mps 762 mmHg 53%
    12:00 +26°C° 0 mm 4 mps 762 mmHg 50%
    13:00 +27°C° 0 mm 4 mps 761 mmHg 47%
    14:00 +27°C° 0 mm 4 mps 761 mmHg 48%
    15:00 +26°C° 0 mm 4 mps 761 mmHg 48%
    16:00 +26°C° 0 mm 4 mps 761 mmHg 49%
    17:00 +25°C° 0 mm 4 mps 761 mmHg 56%
    18:00 +22°C° 0 mm 3 mps 761 mmHg 63%
    19:00 +20°C° 0 mm 3 mps 761 mmHg 71%
    20:00 +19°C° 0 mm 2 mps 762 mmHg 74%
    21:00 +18°C° 0 mm 2 mps 762 mmHg 78%
    22:00 +19°C° 0 mm 1 mps 763 mmHg 81%
    23:00 +18°C° 0 mm 1 mps 762 mmHg 83%

    28 February, Wednesday

    Time Temperature Precipitation Wind Pressure Humidity
    00:00 +18°C° 0 mm 1 mps 762 mmHg 85%
    01:00 +16°C° 0 mm 1 mps 761 mmHg 87%
    02:00 +16°C° 0 mm 1 mps 761 mmHg 88%
    03:00 +16°C° 0 mm 2 mps 761 mmHg 89%
    04:00 +15°C° 0 mm 2 mps 761 mmHg 91%
    05:00 +16°C° 0 mm 2 mps 761 mmHg 87%
    06:00 +17°C° 0 mm 2 mps 761 mmHg 84%
    07:00 +17°C° 0 mm 2 mps 761 mmHg 80%
    08:00 +20°C° 0 mm 2 mps 761 mmHg 69%
    09:00 +24°C° 0 mm 3 mps 760 mmHg 57%
    10:00 +27°C° 0 mm 3 mps 760 mmHg 46%
    11:00 +29°C° 0 mm 4 mps 759 mmHg 40%
    12:00 +33°C° 0 mm 4 mps 758 mmHg 34%
    13:00 +35°C° 0 mm 4 mps 757 mmHg 28%
    14:00 +35°C° 0 mm 5 mps 757 mmHg 30%
    15:00 +35°C° 0 mm 6 mps 756 mmHg 32%
    16:00 +35°C° 0 mm 6 mps 756 mmHg 34%
    17:00 +32°C° 0 mm 6 mps 756 mmHg 44%
    18:00 +28°C° 0 mm 6 mps 756 mmHg 54%
    19:00 +26°C° 0 mm 6 mps 756 mmHg 64%
    20:00 +25°C° 0 mm 5 mps 756 mmHg 68%
    21:00 +23°C° 0 mm 5 mps 756 mmHg 72%
    22:00 +22°C° 0 mm 5 mps 756 mmHg 76%
    23:00 +22°C° 0 mm 4 mps 756 mmHg 75%

    1 March, Thursday

    Time Temperature Precipitation Wind Pressure Humidity
    00:00 +22°C° 0 mm 4 mps 756 mmHg 73%
    01:00 +21°C° 0 mm 4 mps 755 mmHg 72%
    02:00 +21°C° 0 mm 4 mps 755 mmHg 69%
    03:00 +21°C° 0 mm 4 mps 755 mmHg 65%
    04:00 +21°C° 0 mm 4 mps 755 mmHg 61%
    05:00 +22°C° 0 mm 4 mps 756 mmHg 63%
    06:00 +22°C° 0 mm 5 mps 757 mmHg 65%
    07:00 +22°C° 0 mm 6 mps 757 mmHg 66%
    08:00 +24°C° 0 mm 6 mps 758 mmHg 60%
    09:00 +27°C° 0 mm 6 mps 758 mmHg 55%
    10:00 +29°C° 0 mm 6 mps 758 mmHg 49%
    11:00 +29°C° 0 mm 6 mps 758 mmHg 47%
    12:00 +30°C° 0 mm 6 mps 758 mmHg 45%
    13:00 +32°C° 0 mm 6 mps 758 mmHg 43%
    14:00 +29°C° 0 mm 6 mps 757 mmHg 47%
    15:00 +28°C° 0 mm 6 mps 757 mmHg 50%
    16:00 +27°C° 0 mm 6 mps 757 mmHg 54%
    17:00 +26°C° 0 mm 6 mps 758 mmHg 60%
    18:00 +25°C° 0 mm 5 mps 759 mmHg 66%
    19:00 +22°C° 0 mm 5 mps 759 mmHg 71%
    20:00 +22°C° 0 mm 5 mps 760 mmHg 73%
    21:00 +22°C° 0 mm 5 mps 760 mmHg 75%
    22:00 +22°C° 0 mm 5 mps 761 mmHg 77%
    23:00 +21°C° 0.1 mm 4 mps 761 mmHg 78%

    2 March, Friday

    Time Temperature Precipitation Wind Pressure Humidity
    00:00 +21°C° 0.1 mm 4 mps 761 mmHg 79%
    01:00 +21°C° 0.1 mm 4 mps 761 mmHg 79%
    02:00 +21°C° 0.1 mm 4 mps 760 mmHg 80%
    03:00 +20°C° 0.1 mm 4 mps 760 mmHg 81%
    04:00 +20°C° 0.1 mm 4 mps 760 mmHg 82%
    05:00 +20°C° 0.1 mm 4 mps 761 mmHg 82%
    06:00 +20°C° 0.1 mm 4 mps 761 mmHg 82%
    07:00 +20°C° 0.1 mm 4 mps 762 mmHg 81%
    08:00 +21°C° 0.1 mm 4 mps 762 mmHg 78%
    09:00 +22°C° 0.1 mm 4 mps 762 mmHg 74%
    10:00 +23°C° 0.1 mm 4 mps 762 mmHg 71%
    11:00 +25°C° 0.1 mm 4 mps 761 mmHg 69%
    12:00 +25°C° 0.1 mm 4 mps 761 mmHg 67%
    13:00 +26°C° 0.1 mm 4 mps 760 mmHg 65%
    14:00 +25°C° 0 mm 4 mps 760 mmHg 65%
    15:00 +25°C° 0 mm 4 mps 760 mmHg 64%
    16:00 +25°C° 0 mm 4 mps 760 mmHg 64%
    17:00 +23°C° 0 mm 4 mps 760 mmHg 67%
    18:00 +22°C° 0 mm 4 mps 761 mmHg 71%
    19:00 +21°C° 0 mm 3 mps 761 mmHg 74%
    20:00 +21°C° 0 mm 3 mps 761 mmHg 75%
    21:00 +21°C° 0 mm 3 mps 761 mmHg 77%
    22:00 +20°C° 0 mm 2 mps 761 mmHg 79%
    23:00 +20°C° 0 mm 2 mps 761 mmHg 78%
    Show more